Beatrice, NE

3:02 PM CDT on June 23, 2017 (GMT -0500)
Beatrice Municipal

Weather History for KBIE - December, 2012

Change the Weather History Date:

Monday, December 3, 2012

  Actual Average Record
Temperature  
Mean Temperature 48 °F -  
Max Temperature 63 °F 44 °F 66 °F (1998)
Min Temperature 33 °F 21 °F 8 °F (1952)
Degree Days  
Heating Degree Days 17    
Moisture  
Dew Point 40 °F    
Average Humidity 69    
Maximum Humidity 95    
Minimum Humidity 33    
Precipitation  
Precipitation 0.00 in - - ()
Sea Level Pressure  
Sea Level Pressure 29.82 in    
Wind  
Wind Speed 11 mph (WNW)    
Max Wind Speed 25 mph    
Max Gust Speed 31 mph    
Visibility 9 miles    
Events Fog    
Averages and records for this station are not official NWS values.
T = Trace of Precipitation, MM = Missing Value Source: NWS Daily Summary

Daily Weather History Graph

Daily Weather History Graph

Search for Another Location

Airport or City:

Trip Planner

Search our weather history database for the weather conditions in past years. The results will help you decide how hot, cold, wet, or windy it might be!

Date:

Astronomy

Dec. 03, 2012 Rise Set
Actual Time 7:32 AM CST 5:00 PM CST
Civil Twilight 7:02 AM CST 5:31 PM CST
Nautical Twilight 6:28 AM CST 6:05 PM CST
Astronomical Twilight 5:55 AM CST 6:38 PM CST
Moon 9:49 PM CST (12/3) 10:56 AM CST (12/3)
Length of Visible Light 10h 28m
Length of Day
9h 27m
Waning Gibbous, 78% of the Moon is Illuminated
Dec 3
Waning Gibbous
Dec 6
Last Quarter
Dec 13
New
Dec 19
First Quarter
Dec 28
Full

Hourly Weather History & Observations

Time (CST) Temp. Windchill Dew Point Humidity Pressure Visibility Wind Dir Wind Speed Gust Speed Precip Events Conditions
12:15 AM 52.0 °F - 46.8 °F 82% 29.73 in 10.0 mi SSE 9.2 mph - N/A   Clear
12:35 AM 52.0 °F - 46.6 °F 82% 29.71 in 10.0 mi SSE 12.7 mph 16.1 mph N/A   Clear
12:55 AM 52.7 °F - 46.4 °F 79% 29.69 in 10.0 mi SSE 13.8 mph - N/A   Clear
1:15 AM 52.2 °F - 46.0 °F 80% 29.67 in 10.0 mi SE 11.5 mph - N/A   Clear
1:35 AM 52.2 °F - 46.4 °F 81% 29.66 in 10.0 mi SSE 11.5 mph - N/A   Clear
1:55 AM 52.7 °F - 46.8 °F 80% 29.66 in 10.0 mi SSE 10.4 mph - N/A   Clear
2:15 AM 53.8 °F - 47.7 °F 80% 29.66 in 10.0 mi SSE 12.7 mph - N/A   Clear
2:35 AM 53.8 °F - 48.2 °F 81% 29.65 in 10.0 mi SSE 10.4 mph - N/A   Clear
2:55 AM 53.8 °F - 48.6 °F 82% 29.63 in 10.0 mi South 13.8 mph - N/A   Clear
3:15 AM 54.1 °F - 48.9 °F 82% 29.63 in 10.0 mi South 12.7 mph - N/A   Clear
3:35 AM 54.1 °F - 49.3 °F 84% 29.62 in 10.0 mi South 12.7 mph - N/A   Clear
3:55 AM 54.5 °F - 49.8 °F 84% 29.61 in 10.0 mi SSE 9.2 mph 17.3 mph N/A   Clear
4:15 AM 54.7 °F - 50.2 °F 85% 29.61 in 10.0 mi SSE 8.1 mph - N/A   Clear
4:35 AM 54.3 °F - 50.2 °F 86% 29.60 in 10.0 mi South 10.4 mph - N/A   Clear
4:55 AM 53.8 °F - 50.0 °F 87% 29.59 in 10.0 mi South 10.4 mph - N/A   Clear
5:15 AM 54.9 °F - 51.1 °F 87% 29.59 in 10.0 mi South 8.1 mph - N/A   Clear
5:35 AM 55.8 °F - 51.6 °F 86% 29.60 in 10.0 mi South 8.1 mph - N/A   Clear
5:55 AM 55.6 °F - 51.6 °F 87% 29.61 in 10.0 mi South 6.9 mph - N/A   Clear
6:15 AM 54.5 °F - 50.4 °F 86% 29.61 in 10.0 mi South 5.8 mph - N/A   Clear
6:35 AM 54.3 °F - 50.7 °F 88% 29.61 in 10.0 mi South 9.2 mph - N/A   Clear
7:15 AM 52.5 °F - 49.1 °F 88% 29.64 in 3.0 mi SSW 3.5 mph - N/A   Clear
7:35 AM 52.7 °F - 50.2 °F 91% 29.65 in 5.0 mi Calm Calm - N/A   Clear
7:55 AM 43.9 °F 40.5 °F 41.4 °F 91% 29.64 in 0.2 mi SW 5.8 mph - N/A Fog Fog
8:15 AM 48.4 °F - 46.8 °F 94% 29.64 in 0.2 mi South 5.8 mph - N/A Fog Fog
8:35 AM 52.3 °F - 50.9 °F 95% 29.64 in 5.0 mi SSW 8.1 mph - N/A   Clear
8:55 AM 53.8 °F - 52.3 °F 95% 29.67 in 10.0 mi West 6.9 mph - N/A   Clear
9:15 AM 49.3 °F - 46.9 °F 92% 29.69 in 4.0 mi WNW 8.1 mph - N/A   Scattered Clouds
9:35 AM 49.1 °F - 47.5 °F 94% 29.71 in 1.0 mi West 10.4 mph - N/A   Overcast
9:55 AM 50.9 °F - 49.3 °F 94% 29.72 in 2.0 mi West 12.7 mph - N/A   Overcast
10:15 AM 52.0 °F - 49.5 °F 91% 29.72 in 10.0 mi West 8.1 mph - N/A   Scattered Clouds
10:35 AM 54.5 °F - 48.0 °F 79% 29.74 in 10.0 mi West 15.0 mph - N/A   Clear
10:55 AM 53.8 °F - 47.1 °F 78% 29.75 in 10.0 mi WNW 10.4 mph 19.6 mph N/A   Clear
11:15 AM 55.8 °F - 40.6 °F 57% 29.76 in 10.0 mi NNW 15.0 mph 20.7 mph N/A   Clear
11:35 AM 56.5 °F - 37.4 °F 49% 29.77 in 10.0 mi North 18.4 mph 26.5 mph N/A   Clear
11:55 AM 56.8 °F - 36.9 °F 47% 29.79 in 10.0 mi NNW 18.4 mph 26.5 mph N/A   Clear
12:15 PM 57.4 °F - 36.9 °F 46% 29.79 in 10.0 mi North 23.0 mph 28.8 mph N/A   Clear
12:35 PM 59.2 °F - 37.2 °F 44% 29.80 in 10.0 mi North 20.7 mph 26.5 mph N/A   Clear
12:55 PM 59.5 °F - 38.1 °F 45% 29.81 in 10.0 mi NNW 19.6 mph 24.2 mph N/A   Clear
1:15 PM 61.9 °F - 36.9 °F 39% 29.82 in 10.0 mi North 23.0 mph 28.8 mph N/A   Clear
1:35 PM 62.6 °F - 35.4 °F 36% 29.83 in 10.0 mi North 25.3 mph 28.8 mph N/A   Clear
1:55 PM 63.5 °F - 34.3 °F 34% 29.84 in 10.0 mi North 20.7 mph 31.1 mph N/A   Clear
2:15 PM 63.1 °F - 33.6 °F 33% 29.85 in 10.0 mi North 23.0 mph - N/A   Clear
2:35 PM 62.6 °F - 32.7 °F 33% 29.86 in 10.0 mi North 18.4 mph 24.2 mph N/A   Clear
2:55 PM 62.2 °F - 32.9 °F 33% 29.87 in 10.0 mi North 15.0 mph 20.7 mph N/A   Clear
3:15 PM 61.7 °F - 31.8 °F 33% 29.88 in 10.0 mi North 19.6 mph 26.5 mph N/A   Clear
3:35 PM 61.2 °F - 32.0 °F 33% 29.89 in 10.0 mi North 19.6 mph 25.3 mph N/A   Clear
3:55 PM 60.3 °F - 32.0 °F 34% 29.90 in 10.0 mi North 16.1 mph 23.0 mph N/A   Clear
4:15 PM 58.6 °F - 32.4 °F 37% 29.92 in 10.0 mi North 12.7 mph - N/A   Clear
4:35 PM 57.2 °F - 32.9 °F 40% 29.93 in 10.0 mi North 10.4 mph - N/A   Clear
4:55 PM 54.1 °F - 32.9 °F 45% 29.95 in 10.0 mi North 10.4 mph - N/A   Clear
5:15 PM 50.0 °F - 32.5 °F 51% 29.96 in 10.0 mi North 9.2 mph - N/A   Clear
5:35 PM 52.0 °F - 32.9 °F 48% 29.97 in 10.0 mi NNW 9.2 mph - N/A   Clear
5:55 PM 48.6 °F - 32.0 °F 53% 29.98 in 10.0 mi NNW 9.2 mph - N/A   Clear
6:15 PM 48.6 °F - 32.0 °F 53% 30.00 in 10.0 mi NNW 9.2 mph - N/A   Clear
6:35 PM 45.3 °F 40.6 °F 31.1 °F 58% 30.01 in 10.0 mi NNW 9.2 mph - N/A   Clear
6:55 PM 44.4 °F 41.2 °F 30.4 °F 58% 30.02 in 10.0 mi NNW 5.8 mph - N/A   Clear
7:15 PM 39.9 °F 35.8 °F 28.9 °F 65% 30.03 in 10.0 mi NNW 5.8 mph - N/A   Clear
7:35 PM 44.6 °F 43.1 °F 30.2 °F 57% 30.03 in 10.0 mi NNW 3.5 mph - N/A   Clear
7:55 PM 37.9 °F 35.5 °F 28.4 °F 69% 30.04 in 10.0 mi WNW 3.5 mph - N/A   Clear
8:15 PM 37.2 °F 32.6 °F 28.4 °F 70% 30.05 in 10.0 mi WNW 5.8 mph - N/A   Clear
8:35 PM 36.3 °F 30.8 °F 29.1 °F 75% 30.05 in 10.0 mi WNW 6.9 mph - N/A   Clear
8:55 PM 37.6 °F 31.6 °F 30.0 °F 74% 30.06 in 10.0 mi WNW 8.1 mph - N/A   Clear
9:15 PM 39.0 °F 34.0 °F 32.0 °F 76% 30.06 in 10.0 mi WNW 6.9 mph - N/A   Clear
9:35 PM 38.5 °F 34.1 °F 31.1 °F 75% 30.07 in 10.0 mi NW 5.8 mph - N/A   Clear
9:55 PM 37.4 °F 31.4 °F 30.6 °F 76% 30.07 in 10.0 mi NW 8.1 mph - N/A   Clear
10:15 PM 37.4 °F - 30.0 °F 75% 30.08 in 10.0 mi Calm Calm - N/A   Clear
10:35 PM 37.2 °F 34.7 °F 29.3 °F 73% 30.09 in 10.0 mi West 3.5 mph - N/A   Clear
10:55 PM 36.1 °F - 28.9 °F 75% 30.09 in 10.0 mi Calm Calm - N/A   Clear
11:15 PM 36.5 °F - 29.3 °F 75% 30.11 in 10.0 mi Calm Calm - N/A   Clear
11:35 PM 33.8 °F 30.8 °F 26.6 °F 75% 30.12 in 10.0 mi West 3.5 mph - N/A   Clear
11:55 PM 34.3 °F - 27.5 °F 76% 30.12 in 10.0 mi Calm Calm - N/A   Clear